Wind_Speed
13 14 14 15 15 16 17 17 18 18 19 19 20 20 20 21 21 21 22 22 22 22 23 23 24 24 25 26 27 28 30 32 35 37 39 42 44 45 46 46 44 44 43 42 42 41 40 40 39 37 36 35 33 31 29 27 25 22 19 18 16 14 12 11 9 7 6 2 4 5 7 9 13 15 16 17 16 17 21 22 22 24 25 26 26 25 25 24
15 16 17 17 18 18 19 20 20 20 21 21 22 22 22 23 23 23 24 24 24 25 25 25 25 26 26 26 27 28 28 30 32 34 37 40 41 44 46 47 46 45 45 44 43 43 41 40 40 39 37 37 35 33 31 29 27 24 21 19 18 16 15 14 12 11 7 1 5 6 8 11 15 17 15 15 15 15 19 21 21 23 24 25 26 25 25 24
17 18 19 20 20 21 21 22 23 23 24 24 24 24 24 25 25 25 25 25 26 26 27 27 27 27 28 28 28 28 28 29 30 32 35 37 39 42 45 46 47 47 46 46 45 44 43 41 41 40 38 38 36 35 33 31 28 25 23 21 20 19 18 17 15 14 9 4 6 6 8 11 15 16 13 13 14 14 17 19 19 21 23 24 25 25 25 24
19 20 21 22 22 23 24 25 25 26 27 27 27 27 27 27 27 27 27 27 27 28 29 29 29 29 29 30 30 30 29 29 30 31 32 34 37 39 42 45 47 48 48 47 47 46 44 43 42 41 39 38 37 37 35 33 30 27 25 24 22 20 20 19 18 18 14 9 11 10 10 12 15 13 11 12 13 13 15 17 17 19 22 23 24 24 24 23
21 22 23 24 24 25 26 27 28 28 29 30 30 30 30 30 30 30 29 29 29 30 30 30 31 31 31 32 32 32 31 31 32 31 31 33 35 37 40 42 45 48 48 48 48 47 46 44 43 42 40 39 38 38 37 35 32 29 27 25 24 22 21 21 20 19 16 12 12 10 11 12 12 10 10 11 11 11 13 16 16 17 20 22 23 23 23 23
22 24 24 25 26 27 28 28 29 30 31 32 32 33 33 33 33 32 32 32 32 32 32 32 32 32 32 33 33 33 33 33 34 32 32 33 34 36 38 40 43 46 48 49 50 49 48 46 44 43 41 40 40 39 38 37 34 31 29 27 26 24 22 23 20 18 16 13 10 8 11 12 7 6 9 9 7 8 12 15 14 15 18 20 22 22 22 22
25 26 27 27 28 29 29 30 31 32 32 33 34 35 35 35 35 35 35 35 34 34 34 34 33 33 34 34 34 34 34 35 35 35 35 35 35 36 37 38 41 43 46 48 50 50 50 47 45 44 43 42 41 40 40 39 36 32 30 29 27 25 24 24 20 17 15 13 9 8 12 11 5 4 9 7 5 7 10 13 13 14 16 19 20 21 21 21
27 28 29 30 30 31 31 32 32 33 34 34 35 36 36 37 37 37 37 36 37 37 36 36 35 35 35 35 35 35 36 37 37 37 37 36 36 36 36 38 39 41 44 47 50 51 51 49 46 45 44 43 42 41 41 40 37 34 32 30 29 27 25 24 21 17 15 13 11 12 14 11 7 6 9 6 3 6 8 10 12 12 14 17 19 20 20 21
29 30 31 32 33 33 33 34 34 34 34 35 36 36 37 38 38 38 38 38 38 38 38 38 37 37 37 37 37 37 38 39 38 38 38 38 38 38 38 38 38 40 42 45 49 51 51 49 47 46 46 45 44 43 43 41 39 36 34 32 30 29 27 25 22 19 14 12 14 15 14 12 9 7 9 7 2 5 6 8 10 11 13 15 18 19 19 20
32 33 33 34 35 35 35 35 35 35 35 36 36 37 38 38 39 40 40 40 40 40 39 39 39 39 38 38 39 40 41 40 39 39 40 40 40 40 40 39 39 40 41 44 48 50 50 49 48 48 48 47 46 45 44 42 40 38 35 34 32 31 29 26 23 20 13 12 16 18 16 15 9 6 10 8 2 3 4 6 8 9 11 13 16 18 18 19
34 35 36 36 37 37 37 37 36 36 36 36 36 37 38 38 39 40 41 41 41 41 40 40 40 40 40 40 41 42 43 42 40 41 41 41 42 42 42 41 41 41 42 44 47 49 49 49 49 49 49 49 49 47 46 44 42 39 37 36 34 32 31 28 24 20 16 14 18 19 18 15 9 9 12 9 3 2 2 4 6 8 9 11 14 17 17 18
37 37 38 38 38 38 38 38 37 37 36 36 36 37 38 39 39 40 41 42 42 42 42 42 42 42 42 42 43 44 45 44 42 42 42 42 43 43 44 43 43 43 43 44 45 46 47 48 49 49 49 51 51 49 47 45 43 41 39 37 36 35 33 29 25 23 20 17 19 20 18 15 14 15 14 9 6 3 1 2 5 7 8 10 12 15 16 17
40 40 41 40 40 39 39 38 38 38 38 38 38 38 39 39 40 40 41 42 42 43 43 43 43 43 43 43 45 46 47 47 44 42 43 43 43 44 45 45 44 45 45 45 44 44 45 47 49 49 50 52 52 51 49 47 45 43 41 39 38 37 35 32 27 25 24 21 20 22 20 19 20 21 17 12 8 4 2 1 3 5 7 8 11 14 15 16
43 43 43 42 41 40 40 39 40 40 40 41 41 40 40 40 41 41 41 42 42 43 43 44 44 44 44 45 46 48 49 48 45 43 44 44 44 44 45 46 46 46 46 45 44 43 43 46 47 48 50 52 53 53 50 48 47 45 43 41 40 39 36 34 30 28 28 25 23 24 25 24 24 23 19 14 10 6 4 2 1 4 5 7 9 12 13 15
45 45 44 43 42 42 42 42 43 43 43 43 42 42 41 41 41 41 42 42 43 43 44 44 45 45 46 46 47 48 49 49 46 44 45 46 46 46 46 47 47 47 47 46 45 44 43 44 45 46 49 52 55 54 52 50 49 47 45 43 42 41 38 36 32 29 31 29 24 24 26 25 24 23 19 15 12 9 6 4 2 2 4 5 7 10 12 14
47 46 45 45 44 45 45 45 46 46 45 45 43 42 42 41 41 41 42 42 43 43 44 44 45 46 47 47 47 48 49 49 48 46 47 48 48 48 48 48 49 49 49 47 46 45 43 44 45 45 47 52 56 55 54 53 51 49 47 45 43 42 40 38 35 33 34 31 24 23 26 25 25 24 20 15 13 11 8 6 4 1 2 4 6 8 10 12
48 47 47 47 47 48 48 48 48 47 46 45 43 42 41 41 41 41 42 42 43 43 44 44 45 46 46 47 47 47 48 49 49 47 47 48 49 49 49 50 50 51 50 49 47 46 46 46 45 45 47 52 55 56 55 55 54 51 49 47 45 44 43 40 39 39 37 31 26 24 25 26 26 24 20 16 14 13 10 8 6 3 1 2 4 7 9 11
49 49 49 50 50 50 50 49 48 47 46 44 42 41 41 40 40 40 41 42 42 43 43 44 45 45 45 46 46 46 47 47 47 46 46 47 48 49 49 50 51 52 52 51 49 48 49 48 47 46 47 50 54 56 58 58 57 53 50 48 47 46 45 44 43 42 40 35 31 29 27 27 27 24 20 18 17 15 12 9 7 4 2 1 3 5 7 9
51 52 52 53 52 52 50 49 47 45 44 42 41 40 39 39 39 39 40 41 41 42 42 43 44 44 44 45 45 45 46 46 45 45 45 45 47 48 49 49 50 51 52 52 52 52 51 50 48 46 46 49 53 57 60 60 57 54 51 50 49 48 47 47 46 42 40 38 36 33 31 29 28 25 22 19 19 17 14 11 9 6 4 2 1 4 5 8
54 54 54 54 53 51 49 46 44 43 41 39 38 38 37 37 37 37 39 39 40 40 40 41 43 43 44 44 43 44 44 45 44 44 45 46 47 49 50 50 51 51 53 54 55 55 54 52 49 48 49 50 54 60 61 60 58 56 54 52 51 51 49 48 47 43 40 39 38 36 33 30 30 29 26 22 20 19 16 13 11 8 6 4 1 2 4 6
55 55 54 53 51 48 45 43 41 39 38 37 36 35 35 36 36 36 37 38 38 39 40 41 42 42 43 43 42 43 44 45 45 46 47 48 50 51 53 53 54 54 56 57 56 56 55 53 51 51 52 54 57 61 60 59 60 58 56 54 53 53 52 49 47 46 42 39 39 38 35 32 32 31 29 24 21 20 17 14 13 10 8 6 4 0 2 4
55 54 52 49 46 43 41 39 38 36 35 35 34 34 33 34 34 34 35 36 37 39 40 40 41 42 43 43 43 44 46 47 48 49 50 51 52 54 55 56 57 58 59 59 58 57 56 56 56 56 56 57 59 59 59 60 62 60 57 56 56 55 53 51 48 46 43 41 41 42 39 35 34 32 29 25 23 20 17 15 14 13 10 9 6 3 0 2
54 51 48 45 42 39 37 36 35 34 34 33 33 32 32 33 33 34 35 36 37 38 39 41 41 43 44 44 45 48 50 51 52 53 53 54 56 57 58 59 60 61 61 61 61 61 60 61 61 60 59 60 61 59 59 62 62 61 59 58 58 56 55 54 51 48 44 43 44 44 42 38 35 32 28 26 23 19 16 16 16 16 13 11 8 6 3 1
50 46 43 40 38 36 35 34 33 33 33 32 31 31 31 32 33 34 35 36 37 38 40 41 43 44 46 47 49 52 54 55 56 57 58 59 60 61 62 63 63 64 64 64 65 65 66 66 64 62 61 63 62 59 60 63 63 62 62 61 60 58 57 55 54 53 48 45 45 44 44 41 35 33 30 28 25 21 18 18 18 18 16 13 10 7 5 2
45 41 39 37 35 34 33 33 33 33 32 31 30 30 30 31 33 34 36 37 38 39 41 43 45 47 49 52 53 55 58 59 60 61 62 63 63 64 65 65 66 67 67 68 68 69 71 69 65 63 63 65 64 60 61 63 64 64 64 63 61 60 59 57 56 57 53 49 47 44 44 44 39 34 32 31 29 25 21 20 20 20 18 15 12 9 7 5
40 38 36 35 34 33 32 32 32 32 31 30 29 29 30 32 33 35 37 39 40 42 44 45 47 50 53 56 57 59 61 62 63 64 64 64 64 64 66 68 69 70 70 70 71 73 73 71 68 66 66 66 65 62 62 63 64 66 65 64 63 62 62 60 58 58 57 53 51 47 44 46 43 37 34 33 31 28 25 23 22 22 20 17 15 12 10 7
37 36 35 34 33 33 32 32 31 31 30 29 29 30 31 33 35 37 39 41 42 44 47 49 50 53 55 58 60 61 63 63 63 64 63 63 63 64 67 69 70 71 72 72 74 76 75 73 72 70 69 68 67 64 63 64 65 68 67 65 65 65 64 62 60 59 58 56 54 50 45 45 45 41 37 34 32 30 29 27 25 23 22 20 17 15 12 10
35 34 33 33 33 33 32 31 30 30 29 29 29 30 32 35 37 40 42 44 45 47 49 51 53 55 58 60 61 62 62 61 62 62 62 62 63 65 67 69 71 71 72 74 77 78 77 77 75 74 72 70 68 67 65 65 67 70 70 67 67 66 64 62 60 59 58 56 55 52 47 46 46 43 38 35 32 32 32 31 27 24 23 22 20 17 15 12
34 33 32 32 33 32 32 31 30 30 30 30 31 32 33 36 39 42 45 47 49 51 52 54 56 58 60 60 60 60 59 59 60 60 60 60 61 62 64 66 68 69 72 76 80 80 79 79 78 76 75 72 72 71 68 68 70 71 69 67 67 66 65 63 60 59 58 57 56 53 49 47 45 43 40 37 35 35 36 34 30 26 25 24 22 20 17 15
32 31 31 31 32 32 32 31 31 30 30 31 32 34 36 39 42 46 49 51 53 54 56 57 58 58 58 57 56 56 56 56 55 54 54 54 54 55 57 60 62 64 69 76 80 82 82 81 79 77 76 77 77 75 72 72 72 70 68 68 68 68 67 64 59 58 59 59 58 55 52 48 46 45 43 42 40 37 35 34 31 28 27 26 25 23 20 17
29 29 29 30 30 31 31 31 31 31 32 33 34 37 40 43 46 49 52 55 57 57 57 57 56 55 54 53 52 51 50 48 46 45 45 46 47 49 52 54 56 60 65 73 80 83 84 82 80 79 80 81 80 76 75 74 71 69 69 69 69 68 66 63 60 59 60 60 61 59 54 50 49 48 46 45 43 38 35 34 32 30 29 29 27 25 22 19
28 28 29 30 30 31 31 32 33 33 34 36 38 41 44 47 50 53 54 56 57 57 55 54 52 51 50 49 47 45 42 40 38 38 38 40 41 44 47 50 53 57 62 70 78 83 84 83 83 84 85 83 80 77 76 73 69 68 69 69 69 69 67 65 64 63 62 60 63 62 55 52 51 50 48 46 44 42 38 35 32 30 30 31 29 27 24 21
29 30 30 31 32 33 33 34 35 36 38 40 42 45 47 50 52 54 55 54 54 54 53 51 50 48 46 44 41 38 36 33 32 31 32 34 36 40 43 47 51 56 60 67 76 82 84 86 87 86 85 83 81 78 75 70 67 67 69 69 69 71 71 69 67 66 63 61 65 64 56 52 53 52 50 47 46 45 40 34 32 32 31 31 30 28 25 23
31 32 33 34 35 36 36 37 38 40 41 43 45 47 49 50 52 53 52 52 52 52 51 49 47 44 41 38 35 33 30 28 26 26 27 29 32 36 40 45 50 55 58 63 72 80 85 89 89 87 86 84 83 79 74 71 69 69 70 70 70 72 73 72 70 67 63 61 65 66 59 55 55 54 52 49 48 46 41 36 35 34 32 31 30 28 26 25
33 34 35 36 38 39 40 41 41 42 44 45 46 47 48 49 50 50 50 51 51 50 49 46 43 40 37 33 30 28 26 24 22 21 23 25 28 33 38 43 49 54 59 63 70 78 84 89 91 89 87 86 84 80 76 74 72 71 71 71 72 74 74 73 72 67 62 60 65 68 63 58 57 55 54 52 50 48 43 40 39 36 33 32 31 30 28 26
35 36 38 39 41 42 43 43 43 44 44 45 46 46 47 47 48 48 49 51 51 49 46 44 40 36 33 29 25 24 22 20 18 18 19 23 26 30 35 40 45 52 59 65 71 78 85 90 91 90 89 88 86 83 80 77 75 72 72 72 74 76 75 75 73 71 67 64 65 69 66 60 58 56 55 54 52 49 45 43 42 39 36 33 32 31 29 27
37 39 41 42 44 44 44 43 43 42 42 43 44 44 45 45 45 47 50 51 51 49 45 42 38 34 29 24 21 19 18 17 15 15 17 20 23 28 32 36 41 48 57 64 70 77 84 89 92 91 90 89 88 85 82 80 78 75 74 74 75 77 78 77 75 73 72 68 65 69 67 62 59 57 57 57 54 50 48 47 45 43 40 37 34 33 30 28
39 41 43 45 45 45 43 41 40 40 40 41 41 42 43 43 44 47 50 52 51 48 44 40 36 30 25 20 17 15 15 15 13 12 14 18 22 27 31 34 39 45 53 60 67 75 82 89 92 92 91 90 89 87 85 82 80 78 76 75 75 77 79 78 75 73 74 72 68 69 69 65 61 59 58 59 56 52 49 48 47 46 45 41 36 33 32 30
40 43 45 45 44 42 40 39 38 37 38 38 39 40 41 41 44 47 50 52 52 48 43 40 35 27 20 16 14 12 12 12 11 11 13 17 20 25 30 34 38 44 50 57 63 72 80 88 92 93 92 90 89 88 87 84 82 80 77 76 75 77 79 79 79 76 75 74 71 70 71 68 63 61 60 60 57 53 50 48 48 48 47 45 38 34 34 33
41 44 45 43 39 38 37 37 37 36 36 36 37 38 39 40 44 47 49 52 53 49 43 40 34 25 17 14 13 10 9 9 10 11 13 15 19 24 29 34 39 44 50 56 62 69 77 85 90 91 91 91 89 88 86 84 83 81 78 76 75 78 81 81 81 79 76 76 73 71 72 71 66 63 62 61 59 56 52 49 49 49 49 47 42 37 36 35
42 44 43 39 36 36 37 37 36 35 35 35 35 36 36 39 43 45 48 52 53 49 44 40 34 26 17 13 12 10 8 8 8 11 13 14 19 24 29 35 39 45 50 55 61 68 74 81 87 89 90 90 88 87 85 83 82 81 78 77 77 80 82 83 83 82 79 78 76 73 73 73 69 65 64 63 60 58 55 52 50 49 48 47 43 40 39 37
42 40 38 36 36 36 36 36 35 35 34 33 33 34 34 38 42 44 46 50 52 50 44 40 35 26 19 13 11 9 8 7 7 10 13 14 18 24 30 34 39 44 49 53 58 66 72 79 85 88 89 89 87 86 85 83 82 81 80 79 79 80 83 84 84 85 83 81 79 76 74 75 71 66 65 64 61 59 58 56 53 50 47 45 44 43 40 38
40 36 35 35 35 35 35 35 35 34 33 32 31 31 32 36 41 43 45 49 52 51 45 40 35 27 18 12 9 9 7 6 6 8 12 14 18 24 30 35 39 43 47 52 56 63 71 79 84 88 89 88 87 86 85 84 83 84 82 80 79 80 83 85 85 85 84 82 81 78 75 76 73 67 65 64 62 60 59 58 56 53 48 45 44 44 42 39
36 34 34 34 33 33 34 33 33 33 32 30 29 29 30 34 39 41 44 47 50 50 46 40 35 28 19 12 10 9 7 6 5 7 11 14 18 23 29 35 39 42 46 50 55 61 70 77 83 88 89 89 88 86 86 85 85 85 83 80 79 80 81 83 84 84 83 82 81 79 76 77 76 69 64 64 63 60 59 58 56 54 51 46 44 44 43 41
33 33 34 34 32 32 32 32 32 31 31 29 28 28 28 31 37 40 42 45 47 49 47 40 35 30 21 14 12 11 9 7 7 8 11 14 18 22 28 33 37 41 45 49 54 60 68 75 82 87 89 89 88 87 86 86 85 85 83 79 79 79 79 81 82 81 81 80 80 80 77 76 77 72 66 64 63 60 59 58 56 54 53 49 45 44 44 43
31 31 32 33 32 31 31 31 31 30 30 28 26 27 27 29 34 37 39 43 45 47 47 42 36 30 24 18 12 11 11 10 8 9 12 15 18 21 26 32 36 41 44 48 53 59 66 73 80 85 87 89 89 87 85 85 84 84 83 80 79 78 77 78 80 80 81 79 79 80 79 77 78 76 70 65 63 61 60 59 57 56 56 52 47 45 45 45
29 29 29 30 30 30 30 30 30 29 29 28 26 26 26 27 31 35 36 40 43 44 46 44 38 31 26 21 14 10 11 11 9 9 12 15 18 21 25 31 36 41 45 48 53 59 65 71 78 83 87 89 89 86 85 84 83 83 81 79 78 77 76 77 78 79 81 80 79 80 81 79 77 77 75 69 65 62 60 60 59 57 58 57 51 46 46 47
27 27 27 27 28 29 29 29 28 28 28 28 26 25 26 26 29 32 34 37 40 42 44 44 41 34 28 24 18 12 11 12 11 9 11 14 17 21 24 29 35 40 45 49 54 60 65 70 76 81 86 88 87 85 84 83 83 82 80 79 77 76 76 76 77 78 79 81 81 81 83 81 77 75 76 73 68 64 62 61 60 58 59 60 55 48 46 48
25 26 26 25 26 28 29 28 28 27 26 27 26 25 25 26 27 28 31 35 37 40 41 43 43 38 30 26 22 16 11 10 11 10 9 12 16 20 24 28 34 39 45 49 54 60 65 69 74 80 85 87 86 85 84 83 83 82 81 80 78 77 77 77 77 78 79 80 81 81 82 82 79 76 76 76 73 69 65 63 61 59 60 62 61 54 49 48
25 25 25 26 27 28 28 28 27 26 25 25 25 25 25 27 26 25 28 33 35 37 39 40 42 41 34 28 24 20 15 11 11 11 10 11 14 18 22 27 31 36 43 48 53 59 64 68 72 78 84 86 86 85 85 84 83 83 82 81 79 78 78 77 77 78 79 79 80 81 81 82 82 79 77 78 78 74 71 66 62 60 61 63 64 60 54 49
25 25 25 26 27 28 28 27 26 25 24 24 25 25 26 28 27 23 25 30 32 34 37 38 40 41 38 32 26 23 19 15 12 11 11 12 13 17 21 24 28 32 38 45 51 58 63 67 70 76 82 86 86 86 86 85 84 83 82 81 80 79 79 79 78 78 78 79 81 82 82 83 84 83 79 79 80 79 76 72 66 62 62 64 64 63 60 52
25 25 25 26 27 27 27 26 25 25 24 24 24 25 26 27 27 23 23 27 30 32 34 36 38 40 40 36 31 25 22 18 15 13 13 15 16 18 21 24 28 32 37 43 49 55 61 66 69 74 81 85 86 86 87 86 85 84 82 81 80 80 79 79 79 78 78 79 81 82 83 83 84 83 81 79 81 81 80 76 71 66 64 64 65 65 63 57
Wind_Direction
295 292 289 287 285 283 281 279 276 274 273 271 270 268 266 265 265 264 264 264 264 263 262 260 258 256 253 251 248 245 243 242 241 240 238 238 238 239 239 238 235 234 232 230 230 229 228 228 229 231 233 236 235 235 235 236 237 236 233 231 229 223 221 213 198 187 181 223 319 314 320 334 342 342 337 339 345 358 4 1 7 16 19 21 21 20 22 25
300 298 297 294 292 290 288 286 284 281 278 275 272 270 268 266 264 263 261 260 260 260 260 259 259 258 256 254 251 248 245 243 241 240 238 237 237 237 238 238 237 235 233 231 230 230 228 227 228 229 231 234 235 234 234 235 235 235 233 230 226 222 222 216 208 208 200 260 297 292 302 312 333 343 339 334 341 358 4 0 3 13 19 20 20 21 23 26
300 299 298 297 295 294 292 290 289 287 284 281 278 274 272 269 267 265 262 260 259 257 257 256 256 257 257 256 255 252 248 246 243 240 238 237 236 235 236 237 237 235 234 232 231 230 228 227 227 227 228 232 234 234 233 233 233 233 232 230 226 222 223 221 221 228 233 268 269 270 284 302 328 337 334 329 336 353 2 0 1 10 18 20 20 20 23 27
300 299 298 296 295 294 293 291 289 287 286 284 281 278 276 273 271 269 266 263 261 258 256 254 253 253 254 254 255 254 251 249 246 242 240 237 236 235 235 235 236 236 234 233 232 231 229 227 226 226 226 229 232 233 232 232 231 230 229 229 227 223 223 225 228 236 246 252 250 270 283 295 317 322 317 319 326 343 2 3 360 8 17 21 20 20 22 27
299 298 297 296 295 294 293 291 289 287 285 284 282 280 278 275 273 271 270 267 265 262 259 256 254 252 252 251 252 253 252 251 249 245 242 239 236 235 234 234 234 235 234 234 233 231 229 227 225 225 225 226 229 232 232 231 229 226 226 227 227 224 223 226 229 234 248 246 236 268 283 281 300 307 308 311 317 339 7 3 357 6 15 20 21 19 22 27
296 296 295 294 294 293 292 291 289 288 285 283 281 280 278 276 274 273 271 270 268 265 263 260 257 254 252 251 250 250 250 250 250 248 245 242 238 236 234 233 233 234 234 233 233 232 230 227 225 224 225 225 227 229 231 232 230 226 224 226 226 225 224 227 229 231 247 250 233 267 279 268 278 295 300 301 310 345 11 1 354 5 13 19 21 19 20 25
295 294 294 293 293 292 291 290 288 287 285 283 281 279 277 276 274 273 271 270 269 267 265 263 260 257 255 252 250 249 248 248 249 249 247 245 242 239 236 233 233 233 233 233 232 232 230 227 225 224 224 225 225 227 230 231 230 226 223 223 225 225 225 226 229 230 241 249 236 241 249 246 232 261 290 287 306 349 9 359 351 3 11 18 21 20 19 23
295 295 295 294 293 292 291 289 287 286 284 282 280 278 277 275 274 272 271 270 269 267 266 264 262 260 257 255 253 250 248 247 246 246 246 246 245 242 239 235 233 232 232 232 232 231 229 227 225 225 225 225 223 224 228 229 228 226 222 221 223 223 224 225 225 226 234 238 225 215 218 223 216 248 282 271 299 345 2 359 351 358 9 15 20 21 19 21
296 296 296 296 295 294 292 290 287 285 283 281 278 277 275 274 272 271 270 269 268 267 266 265 263 261 259 257 256 253 250 247 245 244 244 245 246 244 242 239 235 233 232 232 232 230 228 226 226 226 227 225 223 223 225 226 226 225 221 219 220 221 223 222 218 218 224 220 212 211 214 220 222 250 271 253 279 339 356 1 350 355 8 13 17 21 20 21
297 297 297 297 296 296 294 292 289 286 284 281 278 275 274 272 271 270 269 268 267 266 265 264 264 262 260 258 257 255 252 249 246 244 243 242 243 244 243 241 238 235 232 232 231 230 227 225 225 226 227 226 223 223 223 224 224 223 220 218 218 220 221 221 216 213 211 202 203 211 216 218 221 255 256 240 258 328 350 2 350 352 8 13 15 20 22 23
299 299 298 297 297 296 295 293 291 288 285 283 280 276 273 271 270 269 267 267 266 265 265 264 263 261 260 258 256 255 254 251 247 245 243 240 240 241 242 242 240 237 234 232 231 230 228 225 225 225 226 227 224 222 221 222 223 221 219 216 216 218 219 219 213 204 195 193 204 214 220 222 230 249 244 238 251 296 343 1 351 350 6 14 15 20 24 26
301 301 300 299 298 296 295 294 292 289 287 285 282 278 274 271 269 268 266 265 265 264 264 263 262 260 258 257 256 255 254 252 249 246 244 242 240 239 240 240 240 240 237 234 231 229 228 226 224 223 225 226 224 222 220 221 221 220 218 215 214 215 217 215 208 197 188 192 209 219 221 225 234 235 236 249 253 246 305 349 351 347 360 13 16 19 25 30
303 303 302 301 299 297 296 294 293 291 289 287 284 281 277 273 270 268 266 264 263 263 263 262 261 259 258 256 256 255 254 252 250 247 246 244 241 239 239 239 238 239 239 236 232 230 228 226 223 223 225 225 224 222 220 220 220 219 217 214 213 213 215 212 204 195 188 192 209 216 211 211 220 224 231 249 245 223 232 298 348 343 354 9 17 19 24 32
305 304 303 302 300 299 297 295 294 292 291 288 286 283 279 275 272 269 267 265 263 262 261 261 261 260 258 255 255 254 254 253 251 249 248 246 243 240 240 240 238 237 239 238 235 231 229 227 224 224 224 223 223 222 219 219 219 218 216 213 211 211 213 210 204 199 193 195 203 209 208 208 215 220 228 238 229 214 208 196 312 336 350 4 18 20 24 36
305 305 304 303 302 300 298 297 296 294 292 290 287 284 280 276 273 270 268 265 263 262 261 261 260 259 257 256 254 254 254 254 252 249 248 248 245 242 240 241 240 237 236 237 235 233 229 227 226 225 224 222 222 221 219 218 218 218 215 212 210 209 211 208 204 201 200 201 201 206 213 215 217 218 221 224 216 211 204 194 214 316 343 358 17 20 24 38
306 305 305 304 303 301 300 298 297 295 293 291 288 285 281 277 274 271 268 266 264 262 261 260 259 258 257 256 255 254 255 254 252 249 247 247 246 244 241 240 241 239 236 234 234 233 231 228 226 225 225 223 222 220 219 218 217 217 214 212 209 207 208 206 203 199 197 200 200 205 215 219 218 218 219 216 208 209 204 195 197 208 329 350 16 21 23 37
306 306 305 304 303 302 300 299 298 296 294 292 289 285 282 278 274 271 268 266 264 262 261 260 259 258 257 256 255 254 254 253 252 249 246 245 245 245 243 240 240 240 237 233 231 231 230 228 225 225 225 223 222 220 219 218 216 215 213 211 208 206 206 203 202 199 195 197 198 204 216 220 219 220 221 213 204 208 205 194 195 192 249 336 12 23 22 34
307 306 306 305 303 302 301 300 299 297 295 292 290 286 282 278 275 272 268 266 265 263 262 261 259 258 257 256 254 253 252 252 252 250 247 244 243 243 243 241 240 240 239 234 230 228 228 227 225 225 225 224 223 221 219 217 215 213 212 211 208 206 206 203 203 202 201 201 198 202 214 220 221 219 219 212 203 205 202 195 195 193 199 284 4 25 22 32
307 307 306 305 304 303 302 301 299 297 295 293 290 287 283 279 275 272 269 267 265 264 262 261 260 259 257 256 255 254 253 252 250 249 247 244 242 242 242 241 240 240 239 236 231 227 225 225 224 224 225 224 224 222 219 215 214 213 211 210 208 206 206 206 205 204 203 202 198 201 210 219 222 217 214 213 207 202 198 193 191 193 193 206 343 25 24 31
308 308 307 306 305 304 303 301 299 297 295 293 290 287 284 279 276 272 270 268 266 264 263 261 260 259 258 257 256 255 254 253 251 250 248 246 244 243 242 241 240 240 240 237 232 227 224 223 222 222 224 224 225 222 217 214 213 212 210 209 208 206 205 206 206 203 200 199 198 202 208 216 222 217 211 213 212 203 194 193 189 191 196 191 208 22 24 31
309 308 308 307 306 305 303 301 298 297 295 294 291 288 285 280 276 273 270 269 267 265 263 261 261 260 259 258 257 256 256 255 255 253 252 250 248 246 244 242 241 240 239 237 233 228 224 222 220 220 222 224 225 221 216 214 213 212 210 208 208 206 204 205 205 202 200 196 197 203 206 212 220 218 212 211 214 205 192 192 192 192 200 196 188 143 19 32
310 310 309 308 306 305 302 299 298 297 296 295 293 289 285 281 278 274 271 269 267 266 265 263 263 262 261 260 259 259 259 259 259 258 256 254 251 248 245 242 241 239 238 237 234 230 226 222 220 218 219 223 224 220 216 214 213 211 209 208 208 206 203 203 203 202 202 195 194 202 205 209 216 216 211 208 210 204 192 193 195 194 201 203 192 178 193 29
312 311 310 308 306 304 301 299 298 298 297 295 293 290 286 283 280 276 273 271 269 268 267 266 265 264 264 264 263 264 264 263 263 262 261 258 255 251 247 243 240 238 236 236 234 232 228 224 220 216 216 221 223 220 217 214 212 210 209 207 207 206 203 203 201 200 201 195 194 200 204 207 212 211 206 204 206 207 201 198 199 197 198 204 201 185 181 48
313 312 310 309 307 305 302 301 299 298 297 296 294 291 288 284 281 279 276 274 272 270 269 268 267 267 267 267 267 267 267 266 266 265 263 261 257 253 248 244 240 237 234 233 232 231 229 224 218 214 214 219 221 219 216 214 211 210 209 207 206 205 203 203 201 199 199 197 195 199 203 207 210 208 204 203 205 211 210 203 202 201 198 201 203 191 183 175
314 313 312 311 309 306 304 302 301 300 299 297 295 292 289 286 283 281 279 277 276 274 272 271 270 271 271 271 270 270 269 269 268 266 263 260 256 252 248 244 240 236 233 231 230 230 228 223 217 214 214 217 219 218 216 215 212 210 209 207 205 205 203 202 202 201 199 198 197 197 202 207 209 207 206 207 208 210 211 204 202 202 199 198 199 194 189 184
315 315 314 313 311 309 306 304 303 301 301 299 297 294 291 288 285 284 282 281 279 278 276 275 275 275 275 274 274 273 272 271 269 267 263 260 255 251 247 243 239 235 232 230 228 228 227 223 218 215 213 215 217 216 216 215 212 210 208 206 204 204 204 202 201 202 200 199 198 196 201 208 210 209 210 211 211 212 210 205 201 201 200 198 198 195 191 189
318 317 316 315 313 311 308 306 305 304 303 302 300 297 294 291 290 287 286 284 283 282 281 280 279 279 278 277 277 276 275 273 271 267 264 260 255 251 247 242 238 235 231 229 227 226 226 223 218 214 212 213 214 215 216 215 212 209 207 205 204 204 204 202 201 202 203 202 199 197 200 207 210 210 210 210 212 213 211 206 200 199 200 199 199 196 192 190
320 319 318 317 315 313 311 309 308 307 306 304 302 299 296 294 293 291 290 289 287 286 286 285 285 283 283 282 281 279 277 274 271 268 264 260 256 251 246 243 238 234 230 227 225 224 223 222 218 214 211 211 212 213 214 215 213 209 205 203 203 203 203 203 202 202 203 203 201 198 200 205 208 209 208 207 209 211 209 205 202 200 201 201 200 199 194 191
321 321 321 320 318 317 316 314 313 312 310 308 305 303 300 298 297 296 296 295 293 292 291 290 289 288 287 285 283 281 278 275 272 268 264 259 254 249 245 241 237 232 228 224 222 221 220 220 217 213 210 210 211 211 211 214 213 208 205 203 202 202 202 203 203 202 202 202 201 198 199 203 207 206 203 202 206 208 207 205 203 203 203 202 202 201 198 194
323 324 324 323 322 322 321 320 319 317 315 312 310 308 305 303 302 301 301 300 298 297 296 295 293 292 290 287 285 282 279 276 272 267 261 255 250 245 240 237 233 229 224 221 219 217 216 217 216 213 210 210 210 209 209 212 211 207 205 203 202 201 201 202 202 202 202 201 199 197 197 200 203 203 200 201 204 205 204 204 203 203 203 202 203 203 200 197
328 328 328 327 326 327 327 325 324 322 319 315 313 311 309 308 307 306 305 304 303 302 300 299 297 295 293 290 287 284 280 276 270 263 257 251 245 239 234 230 227 224 220 217 214 213 213 213 212 211 211 211 209 207 209 211 209 206 205 203 201 201 200 201 202 202 202 200 199 197 196 198 200 200 200 204 206 203 201 203 202 202 204 203 203 204 202 201
331 331 330 329 329 329 328 327 325 322 319 316 315 313 311 311 311 310 309 309 308 307 305 304 302 299 296 293 290 286 281 275 268 261 253 247 240 234 229 225 222 220 217 213 210 209 209 209 209 209 209 209 208 207 209 210 209 207 205 203 201 200 200 201 202 201 201 201 199 197 196 197 199 200 201 204 206 204 201 203 204 203 204 205 204 203 203 202
327 328 328 327 327 326 325 324 322 319 317 316 315 314 314 315 315 314 314 313 313 312 311 309 306 303 300 298 293 288 281 273 265 257 249 243 236 230 226 222 219 217 214 211 208 205 205 205 206 207 208 207 207 206 207 208 209 208 207 203 201 200 201 203 202 200 201 202 200 198 197 198 199 200 201 203 206 206 202 202 207 207 206 207 207 206 205 204
322 323 323 324 324 323 322 321 319 317 316 316 315 316 318 319 318 318 318 319 319 318 316 313 310 308 306 301 295 287 279 270 262 254 246 239 232 227 222 218 215 213 210 208 206 203 202 202 203 204 205 206 205 205 205 206 208 208 207 204 202 202 202 203 202 199 200 204 202 199 197 198 199 199 200 201 205 207 202 200 207 210 208 208 207 207 208 207
319 320 320 321 321 321 320 319 317 316 316 316 316 318 321 321 321 322 324 324 324 323 321 319 317 314 310 303 294 284 275 267 260 253 245 236 229 224 219 215 212 209 206 204 203 201 200 200 201 201 203 204 204 203 203 205 207 207 207 204 202 202 202 203 203 199 198 204 204 200 198 197 198 199 198 199 203 206 202 199 204 210 211 208 207 207 208 208
317 317 319 319 320 320 319 317 316 316 316 316 318 321 323 324 324 327 329 330 330 329 328 327 324 319 312 304 293 282 273 265 256 250 243 234 226 221 218 215 211 208 204 201 200 200 199 199 199 200 201 202 203 202 202 203 206 207 206 205 203 201 201 203 204 200 199 203 204 200 197 196 197 198 198 199 201 202 201 200 201 206 210 208 206 207 207 208
316 317 318 319 319 319 318 317 316 316 316 318 320 323 326 326 328 332 334 335 336 336 335 334 329 322 314 304 291 282 274 264 254 245 239 230 222 217 214 213 211 208 206 202 200 199 198 198 198 198 200 201 201 202 202 202 204 205 206 205 203 201 201 202 203 202 200 202 203 199 197 195 196 197 198 199 201 201 201 202 200 201 205 205 203 205 209 211
316 317 318 319 319 318 318 317 317 318 318 320 323 326 328 329 333 337 339 340 342 341 341 339 333 326 317 303 289 281 275 266 256 245 235 226 218 213 209 207 207 207 206 204 201 199 198 197 197 197 199 201 201 201 201 202 203 204 205 205 203 202 201 201 202 202 202 203 202 199 197 196 195 197 199 200 201 200 202 204 202 200 202 202 202 206 211 213
316 317 318 319 319 319 319 320 320 320 320 321 325 328 329 333 338 341 342 345 346 346 346 344 338 330 320 301 287 281 274 267 255 242 231 221 214 210 206 203 203 203 204 203 201 200 198 197 197 197 198 200 201 201 201 201 202 204 204 203 203 202 202 202 201 200 201 202 201 199 199 197 195 197 199 200 199 198 200 204 206 205 204 204 204 208 212 213
316 317 318 319 320 320 321 322 322 321 321 323 327 329 331 337 341 343 345 349 350 350 350 348 342 333 321 301 289 282 273 267 253 241 232 217 209 207 204 201 200 200 201 201 200 200 199 198 198 197 198 200 201 202 201 201 202 204 203 202 202 203 203 203 201 201 201 201 199 200 199 197 196 197 199 199 198 197 198 202 207 209 209 209 208 207 210 212
316 317 317 318 320 321 321 322 322 321 321 323 328 330 333 339 342 344 349 353 354 353 353 352 346 336 323 306 293 285 272 263 249 240 234 218 206 205 203 201 199 199 200 201 200 198 198 198 198 198 199 200 201 202 202 202 203 204 203 202 202 203 203 203 202 202 202 201 199 200 199 197 196 197 198 198 197 198 200 201 205 210 211 213 212 210 211 212
315 316 316 317 319 319 320 321 321 321 320 323 328 330 335 342 343 345 351 355 356 356 356 356 351 340 329 320 306 292 275 261 248 238 236 224 208 204 202 200 200 200 200 200 201 199 197 198 198 199 200 201 201 202 202 202 204 205 204 203 203 203 204 204 203 203 203 201 200 200 199 197 197 197 197 197 197 199 202 203 205 208 209 211 215 215 215 214
314 314 314 315 318 318 319 319 320 320 319 322 327 330 336 344 344 346 352 356 358 359 358 358 356 348 337 328 313 296 284 269 252 236 235 228 212 205 203 201 199 200 200 200 200 199 198 198 198 199 200 201 202 202 202 202 204 206 206 204 203 204 205 205 204 203 204 202 200 201 200 198 197 197 197 198 198 199 202 205 208 209 207 208 214 218 218 217
312 313 313 315 317 317 318 318 319 319 318 321 325 328 336 345 345 346 352 355 358 0 0 359 359 355 343 322 303 295 285 267 247 231 229 229 218 207 205 203 200 199 200 200 200 200 199 198 198 199 200 201 202 202 202 203 204 206 206 205 204 204 205 206 205 204 205 204 201 201 201 199 198 198 197 198 198 199 202 205 208 210 207 206 212 218 218 219
312 313 314 316 317 318 318 318 319 319 318 319 323 326 334 345 346 346 351 354 357 1 2 1 0 360 353 330 307 297 287 266 241 225 219 222 221 211 204 204 203 201 201 201 200 200 200 200 199 200 200 201 202 202 203 204 205 206 206 205 205 205 205 206 206 206 206 206 204 203 203 201 200 199 197 198 199 199 202 204 207 210 207 205 210 217 217 217
311 313 315 316 318 320 320 319 319 319 318 318 320 323 331 343 345 345 350 353 355 360 3 2 1 360 358 350 329 307 295 282 258 236 222 217 219 214 204 202 204 203 202 202 201 200 201 201 201 200 201 203 203 203 204 205 206 207 206 205 205 206 206 206 206 207 207 207 206 206 205 204 204 203 200 199 199 199 201 203 204 208 208 205 208 215 217 216
310 312 315 317 320 321 321 320 319 319 318 317 317 320 327 340 344 344 349 352 354 359 2 3 2 359 358 357 348 320 300 293 279 255 238 224 218 214 207 203 204 204 203 202 202 202 201 201 202 202 202 203 203 203 204 205 207 208 208 207 206 206 206 206 207 208 208 207 207 207 207 206 206 206 205 202 200 199 201 203 203 206 207 206 207 213 216 217
309 312 316 318 321 323 323 322 319 319 319 317 317 318 324 336 341 342 348 351 352 357 1 3 4 0 356 355 351 336 313 301 292 272 250 237 226 218 211 207 206 207 206 204 203 203 202 201 202 203 204 204 204 204 205 205 207 208 208 208 207 206 206 206 208 209 209 209 208 208 208 207 207 208 208 206 203 201 201 202 203 205 207 206 207 212 214 216
309 313 316 319 322 324 325 323 320 321 321 319 318 317 320 330 337 340 347 351 351 355 359 2 4 2 356 352 350 344 329 305 294 281 259 246 235 226 219 214 210 209 209 207 205 205 204 202 203 204 204 204 203 204 205 206 207 207 208 208 207 207 207 207 208 209 210 210 210 209 209 208 208 210 210 208 206 204 202 202 203 205 207 207 208 212 214 215
310 313 315 318 322 324 325 324 322 322 324 321 318 315 315 322 330 338 347 349 348 353 358 360 3 4 359 352 347 345 335 311 294 284 266 250 239 231 226 222 216 213 212 210 208 207 206 204 205 206 205 204 203 204 206 207 207 208 208 208 207 207 207 208 208 209 210 210 210 210 210 210 210 211 210 208 207 206 204 204 204 205 207 208 209 212 214 214
310 313 315 317 321 324 325 325 324 324 324 323 320 316 314 319 325 335 347 348 346 350 356 357 360 2 2 355 348 343 337 322 304 286 267 254 244 235 230 226 221 216 215 214 212 210 208 206 206 207 206 204 204 205 206 207 208 208 209 209 208 207 207 208 209 209 210 211 211 211 210 210 211 212 211 208 206 207 207 207 206 206 208 209 209 212 215 215
310 312 315 317 320 323 325 326 328 328 326 324 322 320 321 323 324 329 341 346 345 347 352 355 357 359 1 358 351 344 338 326 308 286 266 252 245 237 230 226 221 216 213 214 214 213 211 209 207 208 208 206 205 206 207 208 209 209 209 209 209 208 208 208 209 210 211 212 212 211 211 211 212 214 214 211 208 208 211 211 209 208 209 210 210 211 215 216
Height
10943 10942 10942 10941 10941 10940 10940 10940 10939 10939 10938 10938 10937 10937 10936 10936 10936 10935 10935 10934 10934 10934 10933 10933 10933 10933 10933 10934 10934 10935 10936 10937 10939 10941 10942 10944 10947 10949 10949 10952 10955 10957 10959 10962 10964 10966 10969 10971 10973 10975 10977 10979 10981 10984 10986 10988 10990 10992 10994 10995 10997 10998 10998 10999 10999 10998 10998 10997 10997 10997 10997 10996 10996 10996 10995 10994 10993 10991 10988 10986 10984 10983 10981 10979 10977 10975 10973 10971
10941 10940 10940 10939 10939 10938 10938 10937 10937 10936 10936 10935 10935 10934 10934 10933 10933 10933 10932 10932 10931 10931 10930 10930 10930 10930 10930 10930 10931 10932 10933 10934 10935 10937 10938 10940 10943 10944 10945 10947 10950 10953 10955 10958 10960 10963 10966 10968 10970 10972 10975 10977 10979 10981 10984 10986 10988 10990 10992 10994 10995 10996 10997 10998 10998 10997 10996 10996 10997 10997 10996 10996 10996 10996 10996 10995 10994 10991 10989 10987 10985 10984 10982 10981 10978 10976 10974 10972
10939 10938 10938 10937 10937 10936 10935 10935 10934 10933 10933 10932 10931 10931 10930 10930 10930 10929 10929 10929 10928 10928 10927 10927 10927 10927 10927 10927 10927 10928 10930 10931 10932 10933 10934 10936 10938 10939 10941 10943 10946 10948 10951 10954 10956 10959 10962 10965 10967 10970 10972 10974 10976 10979 10981 10984 10986 10988 10990 10992 10994 10995 10996 10997 10997 10995 10995 10996 10997 10997 10996 10995 10996 10996 10996 10996 10994 10992 10990 10988 10986 10985 10984 10982 10980 10977 10975 10973
10937 10936 10936 10935 10934 10934 10933 10932 10931 10930 10929 10929 10928 10927 10927 10926 10926 10925 10925 10925 10925 10924 10924 10924 10924 10924 10924 10924 10924 10925 10926 10927 10928 10929 10931 10932 10934 10935 10937 10939 10941 10944 10946 10949 10952 10955 10958 10961 10964 10967 10970 10972 10973 10975 10978 10981 10983 10986 10988 10990 10992 10994 10995 10995 10995 10994 10994 10995 10996 10997 10996 10995 10996 10997 10997 10997 10995 10994 10991 10989 10988 10986 10985 10983 10981 10979 10977 10975
10935 10934 10933 10933 10932 10931 10930 10929 10928 10927 10926 10925 10924 10923 10923 10922 10922 10921 10921 10921 10920 10920 10920 10920 10920 10920 10920 10921 10921 10922 10923 10924 10924 10926 10928 10928 10929 10931 10933 10935 10937 10939 10942 10945 10947 10951 10954 10957 10961 10964 10967 10969 10970 10972 10975 10978 10980 10983 10986 10988 10990 10992 10993 10993 10994 10994 10993 10993 10994 10996 10996 10995 10996 10997 10997 10997 10996 10995 10992 10990 10989 10987 10986 10985 10983 10981 10979 10977
10933 10932 10931 10930 10929 10928 10927 10926 10925 10924 10923 10922 10920 10919 10919 10918 10918 10917 10917 10916 10916 10916 10915 10916 10916 10917 10917 10917 10917 10918 10920 10920 10920 10923 10924 10924 10926 10927 10928 10931 10932 10934 10937 10940 10943 10946 10950 10953 10958 10961 10964 10965 10967 10970 10972 10974 10977 10981 10984 10986 10988 10990 10991 10991 10992 10994 10993 10993 10994 10995 10995 10995 10996 10997 10998 10998 10997 10995 10992 10991 10990 10988 10987 10986 10984 10983 10981 10979
10930 10929 10928 10927 10926 10925 10924 10923 10922 10920 10919 10918 10916 10915 10914 10914 10913 10913 10912 10912 10911 10911 10911 10911 10911 10912 10912 10913 10913 10915 10916 10916 10917 10919 10919 10920 10922 10923 10925 10926 10928 10930 10933 10935 10938 10941 10945 10950 10954 10958 10960 10962 10965 10968 10969 10971 10974 10978 10981 10984 10986 10988 10989 10990 10992 10993 10994 10994 10994 10994 10994 10995 10996 10997 10998 10998 10997 10996 10993 10992 10991 10989 10988 10987 10986 10984 10982 10981
10927 10926 10925 10924 10923 10922 10921 10919 10918 10917 10915 10914 10912 10911 10910 10909 10908 10908 10908 10907 10907 10906 10906 10906 10907 10907 10908 10908 10909 10911 10912 10912 10913 10914 10915 10917 10918 10919 10921 10922 10924 10926 10928 10930 10932 10935 10940 10946 10951 10955 10957 10959 10963 10964 10965 10967 10971 10974 10978 10982 10984 10986 10988 10989 10991 10993 10994 10994 10994 10993 10994 10994 10996 10997 10998 10998 10997 10996 10994 10992 10991 10990 10989 10988 10987 10986 10984 10982
10925 10923 10922 10920 10919 10918 10916 10915 10914 10912 10911 10909 10908 10907 10906 10904 10904 10903 10903 10902 10902 10901 10901 10901 10902 10902 10903 10904 10905 10906 10906 10907 10909 10910 10912 10913 10914 10915 10917 10918 10920 10922 10924 10925 10927 10930 10936 10943 10948 10951 10953 10955 10958 10960 10961 10965 10968 10971 10975 10979 10982 10984 10986 10988 10990 10992 10994 10994 10993 10993 10993 10994 10996 10997 10997 10998 10997 10997 10995 10993 10992 10991 10989 10989 10988 10987 10986 10984
10922 10920 10918 10917 10915 10913 10912 10910 10909 10908 10906 10905 10903 10902 10901 10900 10899 10898 10897 10897 10896 10896 10896 10896 10897 10897 10898 10899 10899 10900 10899 10901 10904 10906 10908 10909 10910 10911 10912 10914 10916 10917 10919 10920 10922 10926 10932 10939 10943 10946 10948 10950 10953 10956 10959 10962 10965 10968 10972 10976 10979 10982 10984 10986 10989 10992 10994 10993 10992 10992 10993 10995 10996 10997 10997 10997 10997 10996 10995 10994 10993 10992 10991 10990 10989 10989 10987 10985
10918 10916 10915 10913 10911 10909 10907 10905 10904 10902 10901 10900 10898 10897 10896 10895 10894 10893 10892 10891 10891 10891 10891 10891 10892 10892 10893 10893 10894 10893 10893 10896 10899 10901 10902 10904 10905 10906 10908 10909 10911 10913 10914 10915 10918 10922 10929 10934 10937 10941 10944 10945 10948 10952 10955 10959 10962 10966 10969 10972 10976 10979 10982 10985 10988 10992 10994 10992 10991 10992 10993 10994 10996 10996 10996 10997 10997 10996 10995 10994 10994 10993 10992 10991 10991 10990 10989 10987
10914 10912 10910 10908 10906 10904 10902 10900 10899 10897 10896 10894 10893 10891 10890 10889 10888 10887 10886 10886 10885 10885 10885 10886 10886 10886 10887 10888 10888 10887 10887 10889 10893 10895 10897 10899 10900 10902 10903 10904 10906 10907 10909 10911 10915 10919 10924 10928 10932 10937 10938 10940 10944 10948 10952 10956 10959 10963 10966 10969 10973 10977 10980 10983 10986 10990 10992 10991 10990 10991 10992 10994 10995 10996 10996 10996 10996 10996 10995 10994 10994 10994 10993 10992 10992 10991 10990 10988
10909 10907 10905 10903 10901 10899 10897 10895 10894 10892 10890 10888 10887 10885 10884 10883 10882 10881 10881 10880 10880 10880 10880 10879 10880 10881 10882 10882 10881 10881 10881 10883 10887 10890 10891 10893 10895 10897 10897 10899 10901 10902 10904 10907 10911 10916 10920 10923 10928 10931 10932 10935 10940 10943 10949 10953 10956 10959 10962 10966 10970 10974 10977 10981 10984 10987 10990 10991 10991 10990 10991 10993 10994 10994 10995 10996 10996 10996 10995 10994 10994 10994 10993 10993 10992 10992 10991 10990
10904 10902 10900 10898 10896 10894 10892 10890 10888 10886 10884 10882 10881 10879 10878 10877 10876 10875 10874 10874 10874 10874 10874 10874 10874 10874 10875 10876 10875 10874 10875 10877 10881 10885 10886 10887 10889 10892 10893 10894 10896 10898 10899 10903 10908 10912 10916 10919 10924 10926 10927 10932 10935 10939 10945 10949 10952 10956 10959 10963 10967 10971 10975 10978 10982 10985 10987 10989 10989 10988 10989 10991 10992 10993 10994 10995 10996 10996 10996 10995 10994 10994 10993 10993 10993 10992 10992 10991
10898 10896 10894 10892 10890 10888 10886 10884 10882 10880 10878 10876 10874 10873 10871 10870 10869 10869 10868 10867 10867 10868 10868 10868 10868 10868 10868 10869 10869 10869 10869 10871 10875 10879 10880 10881 10883 10886 10888 10888 10890 10892 10895 10899 10903 10907 10912 10916 10918 10921 10924 10927 10930 10934 10940 10944 10948 10951 10955 10959 10963 10967 10972 10975 10980 10983 10985 10986 10986 10986 10987 10988 10990 10991 10993 10994 10995 10996 10996 10995 10994 10994 10994 10994 10994 10993 10993 10992
10893 10891 10889 10887 10884 10882 10879 10877 10875 10873 10871 10869 10867 10866 10865 10864 10863 10862 10861 10861 10861 10861 10861 10861 10861 10861 10861 10862 10863 10863 10864 10864 10867 10872 10874 10874 10876 10878 10881 10883 10884 10885 10889 10893 10898 10903 10907 10910 10913 10917 10919 10922 10924 10929 10935 10939 10943 10947 10951 10955 10960 10964 10968 10972 10976 10978 10979 10982 10983 10983 10984 10986 10988 10990 10992 10993 10994 10995 10995 10995 10995 10994 10994 10994 10994 10993 10993 10992
10888 10886 10883 10881 10878 10875 10873 10871 10868 10866 10864 10862 10860 10859 10858 10857 10856 10855 10854 10854 10854 10854 10854 10854 10854 10854 10855 10855 10856 10857 10858 10858 10860 10864 10867 10868 10869 10871 10873 10876 10877 10879 10883 10888 10893 10898 10901 10904 10908 10911 10914 10917 10920 10924 10929 10932 10936 10941 10947 10951 10956 10960 10964 10968 10970 10971 10975 10978 10980 10981 10982 10984 10987 10989 10991 10992 10993 10994 10995 10995 10995 10995 10994 10994 10994 10994 10993 10993
10883 10880 10877 10875 10872 10869 10866 10863 10861 10859 10856 10855 10853 10852 10850 10849 10849 10848 10847 10847 10847 10848 10847 10847 10847 10847 10848 10849 10849 10850 10851 10852 10854 10856 10859 10861 10862 10864 10866 10869 10871 10873 10876 10881 10887 10890 10894 10898 10903 10907 10910 10913 10915 10918 10921 10924 10931 10938 10943 10948 10952 10956 10960 10963 10965 10969 10972 10974 10976 10978 10980 10982 10985 10988 10990 10991 10992 10993 10994 10995 10995 10995 10994 10994 10994 10994 10994 10993
10877 10874 10871 10868 10865 10862 10859 10856 10854 10852 10850 10848 10846 10845 10843 10843 10842 10841 10840 10841 10841 10841 10841 10840 10840 10840 10841 10842 10843 10844 10844 10846 10848 10850 10852 10854 10855 10857 10859 10862 10865 10867 10870 10874 10878 10883 10887 10892 10898 10903 10905 10907 10908 10909 10913 10920 10929 10935 10940 10944 10948 10951 10955 10958 10962 10967 10969 10970 10973 10976 10978 10980 10983 10986 10988 10990 10991 10992 10994 10994 10995 10995 10994 10994 10995 10995 10994 10994
10871 10868 10865 10861 10858 10855 10852 10849 10847 10845 10843 10841 10840 10838 10837 10836 10835 10835 10834 10834 10834 10834 10834 10834 10833 10833 10834 10835 10836 10837 10838 10839 10841 10843 10845 10847 10849 10850 10852 10855 10858 10861 10863 10865 10870 10876 10881 10887 10894 10897 10899 10899 10899 10901 10909 10918 10925 10930 10934 10939 10943 10947 10951 10955 10959 10963 10965 10968 10971 10973 10976 10978 10980 10983 10985 10988 10990 10991 10993 10994 10994 10994 10994 10994 10995 10995 10995 10994
10865 10862 10858 10854 10851 10848 10845 10843 10841 10839 10837 10836 10834 10833 10831 10829 10829 10829 10828 10828 10828 10828 10828 10827 10827 10827 10827 10828 10829 10830 10831 10831 10834 10836 10837 10839 10841 10843 10845 10848 10851 10853 10855 10857 10863 10869 10875 10882 10887 10889 10890 10891 10891 10896 10907 10914 10918 10924 10929 10934 10938 10942 10947 10952 10956 10960 10963 10966 10969 10971 10973 10975 10977 10980 10983 10986 10989 10990 10991 10993 10994 10994 10994 10994 10995 10995 10995 10995
10859 10855 10852 10848 10845 10842 10839 10837 10835 10833 10832 10830 10829 10827 10825 10824 10823 10823 10823 10823 10822 10822 10821 10821 10821 10821 10820 10821 10823 10823 10823 10824 10826 10828 10830 10831 10832 10834 10837 10839 10842 10844 10847 10851 10857 10862 10868 10873 10876 10879 10883 10884 10885 10894 10903 10907 10912 10919 10925 10929 10933 10937 10943 10948 10953 10958 10962 10965 10966 10968 10970 10972 10974 10977 10981 10985 10987 10988 10990 10992 10993 10994 10994 10994 10995 10995 10995 10995
10853 10849 10845 10842 10839 10836 10834 10832 10830 10829 10827 10825 10823 10822 10820 10819 10818 10818 10818 10817 10817 10816 10816 10815 10815 10814 10813 10815 10816 10815 10815 10816 10817 10819 10820 10822 10822 10824 10826 10829 10832 10835 10840 10844 10849 10854 10858 10860 10864 10871 10877 10878 10880 10889 10896 10901 10907 10914 10919 10923 10926 10933 10939 10944 10950 10955 10958 10961 10963 10965 10968 10970 10972 10976 10980 10983 10985 10987 10989 10991 10992 10993 10994 10994 10995 10995 10995 10995
10847 10843 10840 10837 10834 10831 10829 10827 10826 10824 10822 10820 10819 10817 10815 10814 10813 10812 10812 10811 10811 10811 10810 10809 10808 10808 10807 10807 10808 10807 10805 10806 10807 10808 10809 10810 10811 10812 10814 10817 10821 10825 10830 10834 10839 10843 10845 10848 10856 10866 10871 10871 10875 10884 10890 10895 10902 10907 10912 10916 10922 10929 10935 10940 10945 10949 10953 10957 10960 10963 10965 10968 10971 10974 10977 10980 10983 10986 10988 10989 10991 10993 10993 10994 10995 10995 10995 10995
10841 10838 10835 10832 10829 10827 10825 10823 10821 10819 10817 10816 10814 10813 10811 10810 10808 10808 10806 10806 10805 10805 10803 10803 10802 10801 10800 10798 10798 10797 10795 10795 10796 10796 10796 10796 10797 10799 10802 10805 10809 10813 10818 10822 10828 10831 10833 10842 10853 10861 10865 10866 10871 10879 10884 10889 10895 10900 10906 10912 10918 10924 10929 10935 10940 10944 10948 10952 10956 10960 10962 10965 10969 10972 10975 10977 10981 10984 10986 10988 10990 10992 10993 10993 10994 10995 10996 10995
10836 10833 10830 10828 10825 10823 10821 10819 10817 10815 10813 10812 10810 10809 10807 10805 10804 10803 10801 10800 10799 10797 10796 10795 10794 10793 10790 10788 10787 10785 10784 10783 10782 10781 10781 10782 10784 10787 10788 10791 10795 10800 10806 10813 10818 10821 10826 10837 10846 10852 10857 10861 10866 10873 10877 10882 10888 10894 10900 10908 10914 10919 10923 10928 10934 10939 10944 10948 10952 10956 10959 10962 10967 10970 10972 10975 10978 10981 10984 10986 10988 10990 10992 10993 10993 10994 10995 10995
10832 10829 10826 10824 10822 10819 10817 10815 10813 10811 10809 10808 10806 10804 10802 10800 10799 10797 10795 10794 10793 10791 10788 10787 10785 10783 10779 10777 10775 10773 10771 10769 10767 10766 10766 10768 10770 10772 10773 10776 10782 10788 10796 10804 10808 10811 10819 10829 10836 10844 10850 10854 10861 10868 10871 10875 10881 10887 10894 10902 10908 10912 10917 10924 10930 10935 10941 10945 10949 10953 10957 10960 10964 10967 10970 10973 10977 10979 10982 10984 10986 10988 10990 10991 10992 10993 10995 10995
10828 10826 10823 10820 10818 10816 10814 10811 10809 10808 10806 10804 10803 10801 10799 10796 10794 10791 10789 10787 10785 10783 10780 10777 10775 10772 10768 10765 10762 10759 10757 10755 10752 10750 10751 10753 10754 10756 10758 10761 10767 10775 10785 10791 10794 10800 10810 10818 10826 10834 10841 10848 10855 10860 10864 10868 10872 10879 10888 10896 10902 10908 10916 10922 10928 10933 10938 10944 10948 10951 10955 10957 10960 10965 10968 10972 10974 10977 10979 10981 10984 10986 10988 10990 10991 10992 10994 10994
10825 10822 10819 10817 10815 10813 10810 10808 10806 10804 10802 10800 10799 10797 10795 10792 10789 10785 10782 10779 10776 10773 10771 10767 10763 10760 10755 10752 10748 10744 10742 10740 10737 10736 10736 10736 10737 10739 10742 10746 10753 10762 10770 10774 10779 10789 10800 10807 10816 10826 10834 10841 10845 10849 10855 10859 10863 10874 10885 10893 10900 10907 10913 10919 10926 10931 10935 10940 10944 10948 10951 10954 10958 10963 10966 10969 10971 10973 10976 10979 10982 10984 10987 10989 10990 10991 10993 10993
10822 10819 10816 10814 10812 10809 10807 10805 10803 10801 10799 10797 10794 10792 10790 10787 10784 10780 10775 10771 10767 10764 10760 10756 10751 10747 10742 10738 10735 10731 10727 10725 10723 10721 10721 10721 10722 10725 10728 10733 10739 10746 10752 10758 10767 10778 10787 10797 10809 10820 10829 10831 10832 10840 10847 10850 10858 10871 10882 10889 10896 10902 10908 10916 10923 10926 10929 10933 10938 10943 10948 10951 10956 10959 10962 10963 10966 10970 10975 10978 10980 10982 10984 10986 10988 10990 10992 10993
10819 10817 10814 10811 10809 10807 10804 10802 10799 10797 10795 10793 10790 10788 10784 10781 10777 10773 10768 10763 10757 10753 10750 10744 10739 10735 10730 10725 10721 10717 10714 10711 10710 10709 10708 10709 10711 10714 10717 10722 10727 10732 10737 10745 10754 10764 10775 10788 10801 10810 10815 10818 10825 10835 10841 10846 10857 10868 10876 10883 10891 10899 10907 10912 10914 10917 10920 10925 10931 10937 10943 10948 10952 10955 10958 10960 10964 10969 10972 10974 10976 10979 10982 10984 10986 10988 10990 10992
10817 10814 10812 10809 10807 10804 10801 10799 10796 10794 10791 10789 10786 10782 10779 10775 10771 10766 10761 10755 10749 10743 10739 10733 10728 10723 10718 10713 10709 10705 10702 10700 10699 10698 10698 10700 10702 10705 10708 10712 10717 10721 10727 10734 10743 10755 10768 10779 10787 10794 10800 10810 10821 10830 10837 10846 10857 10864 10871 10880 10888 10895 10899 10901 10903 10908 10915 10921 10926 10932 10938 10944 10948 10952 10955 10958 10963 10966 10968 10971 10974 10977 10979 10982 10984 10986 10989 10991
10815 10812 10809 10807 10804 10801 10799 10796 10793 10790 10787 10784 10781 10777 10773 10769 10764 10759 10753 10747 10741 10734 10728 10723 10717 10712 10707 10702 10698 10695 10692 10691 10690 10690 10691 10692 10695 10697 10701 10704 10708 10713 10719 10727 10736 10747 10759 10767 10775 10784 10794 10806 10817 10826 10837 10848 10856 10861 10867 10874 10882 10888 10891 10892 10897 10904 10911 10916 10922 10928 10934 10939 10943 10948 10952 10956 10959 10963 10966 10969 10972 10974 10977 10980 10983 10985 10987 10989
10812 10809 10807 10804 10801 10798 10795 10792 10789 10786 10782 10779 10775 10772 10768 10763 10758 10752 10746 10740 10734 10727 10720 10714 10708 10702 10698 10694 10690 10687 10685 10684 10684 10684 10685 10687 10689 10691 10693 10696 10700 10705 10713 10721 10730 10739 10748 10756 10765 10777 10789 10800 10810 10822 10834 10842 10847 10851 10858 10866 10874 10880 10884 10888 10892 10899 10905 10911 10918 10924 10928 10933 10939 10943 10948 10953 10956 10960 10963 10967 10969 10971 10975 10978 10981 10984 10986 10988
10809 10806 10804 10801 10798 10795 10792 10788 10785 10781 10778 10774 10770 10766 10763 10758 10753 10747 10740 10733 10727 10720 10713 10706 10700 10695 10691 10687 10684 10681 10680 10679 10679 10680 10681 10682 10683 10685 10687 10690 10694 10699 10706 10713 10722 10731 10739 10747 10758 10770 10781 10792 10803 10815 10825 10832 10837 10843 10851 10859 10865 10871 10878 10884 10890 10896 10903 10907 10913 10919 10925 10930 10935 10940 10945 10949 10953 10956 10960 10964 10967 10969 10972 10976 10979 10981 10984 10987
10805 10803 10800 10797 10794 10791 10788 10784 10780 10777 10773 10769 10765 10762 10758 10753 10748 10742 10736 10728 10721 10714 10706 10699 10693 10689 10685 10682 10680 10678 10677 10676 10676 10676 10677 10678 10680 10682 10685 10688 10692 10697 10701 10706 10713 10721 10729 10740 10752 10764 10774 10784 10796 10806 10815 10823 10830 10838 10846 10851 10856 10863 10871 10878 10885 10893 10898 10902 10908 10915 10922 10927 10932 10936 10941 10945 10949 10952 10957 10960 10964 10967 10970 10974 10977 10979 10981 10984
10802 10799 10796 10793 10790 10787 10783 10780 10776 10772 10769 10765 10761 10757 10753 10749 10743 10738 10731 10724 10716 10708 10701 10695 10689 10684 10681 10679 10678 10676 10674 10674 10673 10674 10675 10676 10677 10679 10682 10687 10691 10696 10701 10705 10711 10718 10726 10736 10747 10758 10767 10777 10788 10799 10807 10815 10821 10829 10836 10843 10850 10858 10865 10871 10880 10888 10893 10898 10903 10911 10918 10923 10927 10932 10937 10941 10945 10949 10952 10956 10959 10964 10967 10971 10974 10976 10979 10982
10798 10795 10792 10789 10786 10782 10779 10776 10772 10769 10765 10761 10757 10754 10750 10745 10740 10734 10728 10720 10712 10705 10698 10691 10685 10682 10679 10677 10676 10674 10673 10672 10672 10672 10673 10674 10676 10678 10680 10685 10690 10696 10702 10708 10713 10718 10724 10733 10743 10753 10762 10772 10782 10791 10799 10808 10816 10822 10830 10838 10847 10855 10861 10867 10874 10881 10887 10892 10899 10907 10914 10918 10924 10929 10933 10937 10942 10946 10949 10952 10956 10960 10964 10968 10971 10974 10976 10979
10795 10791 10788 10785 10781 10778 10775 10772 10768 10765 10761 10758 10754 10750 10746 10741 10736 10731 10725 10717 10709 10702 10695 10689 10683 10680 10678 10676 10674 10673 10672 10672 10672 10672 10672 10674 10675 10678 10680 10684 10689 10695 10701 10707 10713 10718 10724 10732 10740 10748 10758 10768 10778 10786 10793 10803 10810 10816 10824 10834 10842 10849 10856 10861 10866 10872 10879 10886 10895 10902 10908 10913 10919 10925 10929 10933 10938 10942 10946 10949 10953 10957 10961 10965 10968 10971 10973 10976
10791 10787 10784 10781 10778 10774 10771 10768 10765 10761 10758 10755 10751 10748 10743 10738 10734 10729 10722 10714 10707 10700 10693 10687 10682 10679 10678 10675 10674 10673 10672 10672 10672 10672 10672 10674 10676 10678 10680 10683 10688 10693 10698 10704 10710 10717 10725 10732 10739 10748 10756 10764 10773 10782 10791 10800 10806 10812 10820 10829 10836 10842 10848 10853 10859 10866 10873 10881 10890 10896 10902 10908 10914 10920 10925 10929 10933 10938 10942 10946 10950 10954 10958 10962 10966 10968 10970 10973
10788 10783 10780 10777 10774 10771 10768 10765 10762 10758 10755 10752 10749 10745 10741 10737 10732 10727 10721 10714 10706 10699 10693 10687 10682 10679 10678 10676 10674 10673 10673 10672 10672 10673 10673 10674 10676 10678 10680 10683 10687 10691 10696 10702 10708 10715 10723 10731 10740 10749 10755 10761 10770 10779 10789 10798 10804 10810 10817 10824 10829 10834 10840 10847 10854 10860 10867 10875 10883 10889 10896 10903 10909 10915 10920 10924 10929 10934 10938 10943 10947 10952 10956 10959 10962 10965 10967 10971
10784 10780 10777 10774 10771 10768 10765 10762 10759 10756 10752 10749 10746 10743 10739 10735 10730 10725 10720 10714 10707 10699 10693 10688 10683 10679 10677 10677 10675 10674 10673 10673 10673 10674 10674 10675 10676 10678 10680 10683 10687 10691 10696 10702 10708 10714 10720 10728 10737 10746 10752 10760 10768 10776 10786 10795 10801 10806 10811 10817 10823 10829 10835 10841 10847 10854 10860 10869 10877 10884 10891 10898 10905 10911 10915 10920 10925 10930 10935 10940 10945 10949 10953 10956 10959 10962 10965 10969
10779 10777 10774 10771 10769 10765 10762 10759 10756 10753 10749 10746 10744 10740 10737 10733 10728 10724 10719 10713 10707 10700 10693 10689 10684 10680 10678 10677 10676 10674 10674 10674 10674 10675 10675 10676 10677 10679 10681 10684 10687 10691 10696 10701 10707 10713 10718 10724 10733 10741 10748 10756 10764 10772 10781 10788 10794 10798 10803 10811 10820 10826 10831 10836 10842 10850 10858 10866 10874 10881 10888 10895 10901 10907 10912 10917 10921 10926 10931 10936 10941 10946 10951 10954 10956 10959 10963 10967
10774 10772 10770 10768 10766 10763 10759 10756 10753 10750 10747 10744 10741 10738 10735 10732 10727 10722 10718 10713 10707 10701 10695 10690 10686 10682 10679 10677 10676 10675 10674 10674 10674 10675 10676 10677 10678 10680 10682 10684 10687 10691 10695 10700 10706 10712 10717 10723 10730 10737 10743 10750 10758 10767 10774 10780 10786 10791 10799 10810 10818 10822 10829 10836 10844 10853 10859 10866 10873 10879 10886 10893 10899 10904 10909 10914 10918 10923 10928 10933 10938 10943 10948 10951 10953 10956 10960 10963
10771 10768 10765 10763 10762 10759 10756 10753 10750 10747 10744 10741 10739 10736 10733 10730 10727 10722 10717 10713 10708 10703 10697 10692 10688 10685 10682 10679 10677 10676 10675 10675 10675 10675 10676 10677 10678 10680 10682 10685 10689 10692 10695 10699 10705 10710 10715 10721 10727 10733 10740 10746 10754 10762 10769 10777 10783 10788 10798 10809 10815 10821 10829 10837 10846 10854 10860 10867 10873 10878 10884 10890 10895 10900 10906 10911 10915 10920 10925 10930 10935 10940 10945 10949 10951 10954 10957 10961
10767 10765 10762 10759 10757 10755 10753 10750 10747 10744 10741 10739 10737 10735 10732 10729 10725 10722 10717 10713 10709 10704 10698 10693 10690 10686 10684 10681 10679 10678 10676 10676 10676 10676 10676 10677 10678 10680 10682 10685 10688 10691 10694 10699 10703 10708 10713 10718 10724 10731 10738 10743 10751 10760 10768 10776 10782 10788 10797 10806 10812 10820 10829 10836 10844 10850 10856 10864 10870 10875 10881 10886 10891 10896 10902 10907 10912 10917 10922 10927 10932 10937 10942 10946 10949 10951 10954 10957
10764 10762 10760 10757 10754 10752 10750 10747 10744 10742 10739 10737 10735 10733 10730 10727 10724 10721 10717 10713 10709 10705 10700 10695 10691 10688 10685 10683 10681 10679 10677 10676 10677 10677 10677 10677 10678 10679 10682 10684 10686 10689 10692 10696 10700 10705 10710 10716 10722 10728 10733 10739 10748 10758 10766 10773 10780 10788 10798 10806 10812 10819 10826 10833 10840 10846 10852 10859 10864 10869 10875 10880 10886 10893 10899 10904 10909 10913 10919 10923 10928 10933 10937 10942 10947 10949 10951 10953
10761 10759 10758 10755 10752 10750 10747 10744 10742 10739 10737 10735 10733 10730 10728 10725 10722 10719 10716 10713 10709 10705 10701 10696 10692 10689 10686 10684 10682 10680 10679 10677 10677 10678 10678 10678 10679 10680 10682 10683 10686 10688 10691 10694 10698 10702 10707 10712 10717 10722 10728 10736 10747 10756 10763 10770 10778 10786 10795 10802 10809 10816 10822 10828 10834 10841 10847 10853 10857 10862 10868 10875 10884 10890 10895 10900 10905 10909 10914 10919 10923 10928 10933 10938 10943 10946 10947 10949
10758 10756 10755 10753 10751 10748 10745 10742 10739 10737 10735 10732 10730 10728 10725 10723 10721 10718 10715 10712 10709 10705 10702 10698 10694 10690 10687 10685 10683 10681 10680 10678 10677 10678 10678 10678 10679 10680 10681 10683 10685 10687 10689 10693 10696 10699 10704 10708 10713 10717 10724 10734 10745 10753 10760 10767 10774 10781 10788 10795 10804 10811 10816 10822 10828 10834 10841 10847 10853 10859 10865 10872 10880 10884 10888 10894 10899 10904 10909 10913 10918 10922 10927 10932 10936 10940 10943 10945
10755 10753 10751 10750 10748 10746 10743 10740 10737 10735 10733 10730 10728 10726 10724 10722 10720 10717 10714 10711 10708 10706 10702 10698 10695 10691 10688 10685 10683 10681 10680 10679 10678 10678 10678 10678 10678 10679 10680 10682 10684 10686 10688 10692 10695 10697 10701 10706 10710 10715 10722 10731 10740 10748 10755 10762 10768 10775 10781 10788 10797 10804 10810 10816 10822 10828 10834 10840 10847 10854 10860 10867 10872 10875 10880 10886 10892 10898 10903 10907 10912 10916 10921 10926 10930 10934 10938 10941
10752 10750 10748 10747 10745 10743 10741 10738 10735 10733 10731 10728 10726 10724 10722 10720 10718 10716 10713 10711 10708 10705 10703 10699 10695 10692 10689 10686 10683 10681 10680 10678 10678 10677 10677 10677 10677 10678 10679 10680 10682 10684 10687 10690 10692 10695 10698 10704 10709 10713 10719 10727 10736 10743 10749 10756 10763 10770 10776 10783 10791 10798 10804 10810 10816 10823 10829 10833 10839 10845 10852 10859 10863 10867 10873 10879 10885 10891 10896 10901 10906 10910 10915 10920 10925 10929 10933 10936
10749 10747 10745 10744 10742 10740 10738 10735 10733 10731 10729 10726 10724 10722 10720 10719 10717 10714 10711 10709 10707 10705 10702 10699 10696 10692 10689 10686 10683 10681 10679 10678 10677 10676 10675 10675 10675 10675 10676 10677 10678 10680 10683 10685 10689 10693 10697 10702 10707 10711 10717 10724 10731 10737 10743 10750 10757 10764 10771 10779 10786 10793 10799 10805 10811 10817 10822 10827 10833 10839 10846 10853 10858 10864 10870 10876 10882 10887 10891 10895 10901 10905 10909 10914 10918 10923 10927 10931